Weather History for Ionia, MI

Change the Weather History Date:

Saturday, March 9, 2013

  Actual Average (KGRR) Record (KGRR)
Temperature  
Mean Temperature 32 °F 33 °F  
Max Temperature 41 °F 41 °F 68 °F (2000)
Min Temperature 24 °F 25 °F -7 °F (1996)
Degree Days  
Heating Degree Days 32 32  
Month to date heating degree days 300  
Since 1 July heating degree days 5077  
Cooling Degree Days 0 0  
Month to date cooling degree days 0  
Year to date cooling degree days 0  
Moisture  
Dew Point 29 °F    
Average Humidity 79    
Maximum Humidity 93    
Minimum Humidity 61    
Precipitation  
Precipitation 0.00 in 0.07 in 1.35 in (1998)
Month to date precipitation 0.66  
Year to date precipitation 4.54  
Snow  
Snow 0.00 in 0.40 in 8.20 in (1998)
Month to date snowfall 3.5  
Since 1 July snowfall 68.3  
Snow Depth -    
Sea Level Pressure  
Sea Level Pressure 30.18 in    
Wind  
Wind Speed 7 mph (SE)    
Max Wind Speed 15 mph    
Max Gust Speed -    
Visibility 10 miles    
Events Rain    
T = Trace of Precipitation, MM = Missing Value Source: NWS Daily Summary

Daily Weather History Graph

Daily Weather History Graph

Search for Another Location

Airport:

Trip Planner

Search our weather history database for the weather conditions in past years. The results will help you decide how hot, cold, wet, or windy it might be!

Date:

Astronomy

Mar. 09, 2013 Rise Set
Actual Time 7:02 AM EST 6:39 PM EST
Civil Twilight 6:34 AM EST 7:08 PM EST
Nautical Twilight 6:01 AM EST 7:40 PM EST
Astronomical Twilight 5:28 AM EST 8:14 PM EST
Moon 5:28 AM EST (3/9) 4:39 PM EST (3/9)
Length of Visible Light 12h 34m
Length of Day
11h 37m
Waning Crescent, 5% of the Moon is Illuminated
Mar 9
Waning Crescent
Mar 11
New
Mar 19
First Quarter
Mar 27
Full
Apr 3
Last Quarter

Hourly Weather History & Observations

Time (EST) Temp. Windchill Dew Point Humidity Pressure Visibility Wind Dir Wind Speed Gust Speed Precip Events Conditions
12:16 AM 28.4 °F 24.6 °F 24.8 °F 86% 30.36 in 10.0 mi ESE 3.5 mph - N/A   Clear
12:36 AM 28.4 °F 23.3 °F 24.8 °F 86% 30.36 in 10.0 mi SE 4.6 mph - N/A   Clear
12:56 AM 28.4 °F 24.6 °F 24.8 °F 86% 30.36 in 10.0 mi SE 3.5 mph - N/A   Clear
1:16 AM 28.4 °F 23.3 °F 24.8 °F 86% 30.35 in 10.0 mi SE 4.6 mph - N/A   Clear
1:35 AM 26.6 °F 22.6 °F 24.8 °F 93% 30.36 in 7.0 mi SSE 3.5 mph - N/A   Clear
1:55 AM 28.4 °F 24.6 °F 24.8 °F 86% 30.36 in 10.0 mi South 3.5 mph - N/A   Clear
2:15 AM 26.6 °F 22.6 °F 23.0 °F 86% 30.35 in 10.0 mi SSE 3.5 mph - N/A   Clear
2:36 AM 24.8 °F 19.1 °F 23.0 °F 93% 30.34 in 7.0 mi ESE 4.6 mph - N/A   Clear
2:56 AM 24.8 °F 17.9 °F 23.0 °F 93% - 5.0 mi SE 5.8 mph - N/A   Clear
3:15 AM 26.6 °F 20.0 °F 23.0 °F 86% 30.32 in 7.0 mi SE 5.8 mph - N/A   Clear
3:37 AM - - - N/A% - 10.0 mi SE 5.8 mph - N/A   Clear
3:57 AM 26.6 °F 21.2 °F 23.0 °F 86% 30.31 in 10.0 mi SSE 4.6 mph - N/A   Clear
4:17 AM 26.6 °F 22.6 °F 23.0 °F 86% 30.30 in 10.0 mi SE 3.5 mph - N/A   Clear
4:37 AM - - - N/A% - - North - - N/A   Unknown
4:57 AM - - - N/A% - - North - - N/A   Unknown
5:17 AM 24.8 °F 20.5 °F 23.0 °F 93% 30.31 in 7.0 mi SE 3.5 mph - N/A   Clear
5:37 AM - - - N/A% - 7.0 mi ESE 5.8 mph - N/A   Unknown
6:00 AM 26.6 °F 19.1 °F 23.0 °F 86% 30.31 in 10.0 mi ESE 6.9 mph - N/A   Clear
6:17 AM 28.4 °F 20.4 °F 23.0 °F 80% 30.31 in 10.0 mi SE 8.1 mph - N/A   Clear
6:37 AM 28.4 °F 20.4 °F - N/A% - 10.0 mi SE 8.1 mph - N/A   Clear
6:57 AM - - - N/A% - - North - - N/A   Unknown
7:16 AM 28.4 °F 21.2 °F 24.8 °F 86% 30.29 in 7.0 mi SE 6.9 mph - N/A   Clear
7:35 AM 30.2 °F 23.4 °F 26.6 °F 86% 30.29 in 7.0 mi SE 6.9 mph - N/A   Clear
8:02 AM 30.2 °F 23.4 °F 26.6 °F 86% 30.30 in 10.0 mi SSE 6.9 mph - N/A   Clear
8:15 AM 30.2 °F 24.3 °F 26.6 °F 86% 30.30 in 10.0 mi SE 5.8 mph - N/A   Clear
8:35 AM 32.0 °F 24.8 °F 28.4 °F 87% 30.31 in 10.0 mi SE 8.1 mph - N/A   Clear
8:55 AM 32.0 °F 24.8 °F 28.4 °F 87% 30.31 in 10.0 mi SSE 8.1 mph - N/A   Clear
9:15 AM 33.8 °F 26.4 °F 28.4 °F 81% 30.30 in 10.0 mi SE 9.2 mph - N/A   Clear
9:35 AM 33.8 °F 25.8 °F 28.4 °F 81% 30.28 in 10.0 mi SE 10.4 mph - N/A   Clear
9:56 AM 35.6 °F 29.2 °F 28.4 °F 75% 30.28 in 10.0 mi SSE 8.1 mph - N/A   Clear
10:15 AM 35.6 °F 28.0 °F 28.4 °F 75% 30.27 in 10.0 mi SE 10.4 mph - N/A   Clear
10:35 AM 35.6 °F 27.1 °F 28.4 °F 75% 30.27 in 10.0 mi SE 12.7 mph - N/A   Clear
10:55 AM 37.4 °F 30.3 °F 28.4 °F 70% 30.27 in 10.0 mi SSE 10.4 mph - N/A   Clear
11:15 AM 37.4 °F 30.3 °F 28.4 °F 70% 30.27 in 10.0 mi South 10.4 mph - N/A   Clear
11:36 AM 37.4 °F 30.3 °F 30.2 °F 75% 30.26 in 10.0 mi SSE 10.4 mph - N/A   Clear
11:56 AM 39.2 °F 30.8 °F 28.4 °F 65% 30.26 in 10.0 mi SSE 15.0 mph - N/A   Clear
12:15 PM 39.2 °F 31.2 °F 28.4 °F 65% 30.26 in 10.0 mi South 13.8 mph - N/A   Clear
12:35 PM 41.0 °F 34.3 °F 28.4 °F 61% 30.24 in 10.0 mi SSE 11.5 mph - N/A   Clear
1:00 PM 39.2 °F 31.6 °F 28.4 °F 65% 30.22 in 10.0 mi SSE 12.7 mph - N/A   Clear
1:15 PM 41.0 °F 34.7 °F 30.2 °F 65% 30.19 in 10.0 mi SE 10.4 mph - N/A   Scattered Clouds
1:35 PM 39.2 °F 32.0 °F 28.4 °F 65% 30.18 in 10.0 mi South 11.5 mph - N/A   Mostly Cloudy
1:55 PM 39.2 °F 32.5 °F 28.4 °F 65% 30.17 in 10.0 mi SSE 10.4 mph - N/A   Overcast
2:16 PM 39.2 °F 32.0 °F 30.2 °F 70% - 10.0 mi SE 11.5 mph - N/A   Overcast
2:35 PM - - - N/A% - 10.0 mi ESE 12.7 mph - N/A   Overcast
2:56 PM 39.2 °F 31.6 °F 30.2 °F 70% 30.11 in 10.0 mi ESE 12.7 mph - N/A   Light Drizzle
3:15 PM 39.2 °F 32.0 °F 30.2 °F 70% 30.12 in 10.0 mi SE 11.5 mph - N/A   Overcast
3:35 PM 39.2 °F 32.0 °F 30.2 °F 70% 30.12 in 10.0 mi SE 11.5 mph - N/A   Overcast
4:15 PM 39.2 °F 31.6 °F 30.2 °F 70% 30.10 in 10.0 mi SE 12.7 mph - N/A   Overcast
4:35 PM 41.0 °F 35.8 °F 30.2 °F 65% 30.09 in 10.0 mi ESE 8.1 mph - N/A   Mostly Cloudy
4:56 PM 41.0 °F 35.8 °F 32.0 °F 70% 30.08 in 10.0 mi SE 8.1 mph - N/A   Mostly Cloudy
5:15 PM 39.2 °F 33.0 °F 32.0 °F 75% 30.07 in 10.0 mi ESE 9.2 mph - N/A   Overcast
5:40 PM 39.2 °F 35.9 °F 32.0 °F 75% 30.07 in 10.0 mi SE 4.6 mph - N/A   Overcast
5:55 PM 39.2 °F 35.0 °F 32.0 °F 75% 30.06 in 10.0 mi SE 5.8 mph - N/A   Overcast
6:15 PM 39.2 °F 35.9 °F 32.0 °F 75% 30.06 in 10.0 mi ESE 4.6 mph - N/A   Mostly Cloudy
6:35 PM 39.2 °F 37.0 °F 32.0 °F 75% 30.05 in 10.0 mi ESE 3.5 mph - N/A   Overcast
6:55 PM 39.2 °F - 32.0 °F 75% - 10.0 mi Calm Calm - N/A   Overcast
7:15 PM 37.4 °F 34.9 °F 32.0 °F 81% 30.05 in 10.0 mi East 3.5 mph - N/A   Overcast
7:35 PM 39.2 °F 35.9 °F 32.0 °F 75% 30.04 in 10.0 mi ESE 4.6 mph - N/A   Overcast
7:55 PM 39.2 °F 35.9 °F 32.0 °F 75% 30.04 in 10.0 mi ESE 4.6 mph - N/A   Mostly Cloudy
8:15 PM 37.4 °F 32.8 °F 32.0 °F 81% 30.03 in 10.0 mi ESE 5.8 mph - N/A   Scattered Clouds
8:35 PM 39.2 °F 34.2 °F 32.0 °F 75% 30.02 in 10.0 mi ESE 6.9 mph - N/A   Mostly Cloudy
8:55 PM 39.2 °F 33.6 °F 32.0 °F 75% 30.01 in 10.0 mi ESE 8.1 mph - N/A   Overcast
9:15 PM 39.2 °F 33.6 °F 33.8 °F 81% 30.01 in 10.0 mi ESE 8.1 mph - N/A   Overcast
9:35 PM 37.4 °F 31.4 °F 33.8 °F 87% 30.01 in 7.0 mi SE 8.1 mph - N/A Rain Rain
9:55 PM 37.4 °F 30.8 °F 33.8 °F 87% 29.99 in 10.0 mi SE 9.2 mph - N/A Rain Light Rain
10:15 PM 39.2 °F 34.2 °F 33.8 °F 81% 30.00 in 10.0 mi SE 6.9 mph - N/A   Overcast
10:35 PM 37.4 °F 30.3 °F 33.8 °F 87% 29.99 in 10.0 mi SE 10.4 mph - N/A   Overcast
10:55 PM 37.4 °F 32.1 °F 33.8 °F 87% 29.99 in 10.0 mi SE 6.9 mph - N/A   Scattered Clouds
11:15 PM 37.4 °F 31.4 °F 33.8 °F 87% 29.98 in 10.0 mi SSE 8.1 mph - N/A   Clear
11:35 PM 37.4 °F 30.8 °F 33.8 °F 87% 29.98 in 10.0 mi SE 9.2 mph - N/A   Clear
11:55 PM 37.4 °F 29.8 °F 33.8 °F 87% 29.97 in 10.0 mi SE 11.5 mph - N/A   Clear